Location: Newark
(41.0400°S, 62.7845°W)
Time: 07:16:45
(UTC+00:00)

Vanguard 2 Rocket - Pass Details

Date: 03 December 2021
Orbit: 553 x 3325 km, 32.9° (Epoch: 24 January)

Event Time Altitude Azimuth Distance (km) Brightness Sun altitude
Rises 11:20:27 0° 285° (WNW) 6,989 10.9 29.0°
Reaches altitude 10° 11:25:41 10° 287° (WNW) 5,680 10.5 30.0°
Maximum altitude 11:41:03 58° 360° (N) 2,222 9.3 32.9°
Drops below altitude 10° 11:49:51 10° 76° (ENE) 3,389 11.1 34.5°
Sets 11:52:12 0° 80° (E) 4,083 11.2 35.0°
